TimeEDT,TemperatureF,Dew PointF,Humidity,Sea Level PressureIn,VisibilityMPH,Wind Direction,Wind SpeedMPH,Gust SpeedMPH,PrecipitationIn,Events,Conditions,WindDirDegrees,DateUTC
12:53 AM,73.9,71.1,91,30.08,10.0,East,5.8,-,N/A,,Scattered Clouds,80,2013-06-01 04:53:00
1:53 AM,73.0,70.0,90,30.06,10.0,East,4.6,-,N/A,,Scattered Clouds,80,2013-06-01 05:53:00
2:53 AM,73.0,71.1,93,30.04,10.0,ENE,5.8,-,N/A,,Scattered Clouds,70,2013-06-01 06:53:00
3:53 AM,73.0,71.1,93,30.02,10.0,ENE,5.8,-,N/A,,Scattered Clouds,70,2013-06-01 07:53:00
4:53 AM,73.0,70.0,90,30.02,10.0,East,4.6,-,N/A,,Scattered Clouds,80,2013-06-01 08:53:00
5:53 AM,73.0,70.0,90,30.04,10.0,East,4.6,-,N/A,,Scattered Clouds,80,2013-06-01 09:53:00
6:53 AM,73.0,71.1,93,30.06,10.0,ENE,4.6,-,N/A,,Scattered Clouds,70,2013-06-01 10:53:00
7:53 AM,75.9,72.0,87,30.06,10.0,ENE,6.9,-,N/A,,Scattered Clouds,70,2013-06-01 11:53:00
8:53 AM,79.0,72.0,79,30.07,10.0,ESE,11.5,-,N/A,,Scattered Clouds,110,2013-06-01 12:53:00
9:53 AM,82.9,72.0,69,30.06,10.0,East,13.8,-,N/A,,Scattered Clouds,100,2013-06-01 13:53:00
10:53 AM,84.0,71.1,65,30.05,10.0,East,15.0,-,N/A,,Mostly Cloudy,80,2013-06-01 14:53:00
11:53 AM,84.9,71.1,63,30.05,10.0,East,12.7,17.3,N/A,,Mostly Cloudy,100,2013-06-01 15:53:00
12:53 PM,84.9,71.1,63,30.04,10.0,East,13.8,-,N/A,,Mostly Cloudy,100,2013-06-01 16:53:00
1:53 PM,88.0,72.0,59,30.03,10.0,East,13.8,19.6,N/A,,Partly Cloudy,100,2013-06-01 17:53:00
2:53 PM,87.1,72.0,61,30.00,10.0,ESE,9.2,17.3,N/A,,Partly Cloudy,120,2013-06-01 18:53:00
3:53 PM,86.0,72.0,63,29.99,10.0,East,15.0,-,N/A,,Scattered Clouds,100,2013-06-01 19:53:00
4:53 PM,86.0,73.0,65,29.98,10.0,East,12.7,23.0,N/A,,Partly Cloudy,90,2013-06-01 20:53:00
5:53 PM,84.9,72.0,65,29.99,10.0,East,15.0,25.3,N/A,,Partly Cloudy,80,2013-06-01 21:53:00
6:53 PM,82.0,73.0,74,30.00,10.0,ESE,17.3,-,N/A,,Mostly Cloudy,110,2013-06-01 22:53:00
7:47 PM,78.8,73.4,83,30.02,10.0,East,16.1,-,N/A,,Overcast,100,2013-06-01 23:47:00
7:53 PM,79.0,73.0,82,30.01,10.0,East,18.4,24.2,N/A,,Overcast,100,2013-06-01 23:53:00
8:03 PM,78.8,73.4,83,30.02,10.0,East,16.1,-,0.00,Rain,Light Rain,100,2013-06-02 00:03:00
8:53 PM,77.0,72.0,84,30.03,10.0,ESE,11.5,-,0.00,,Overcast,110,2013-06-02 00:53:00
9:53 PM,77.0,73.0,88,30.04,10.0,East,10.4,-,N/A,,Overcast,100,2013-06-02 01:53:00
10:53 PM,77.0,73.9,90,30.04,10.0,East,8.1,-,N/A,,Mostly Cloudy,80,2013-06-02 02:53:00
11:53 PM,75.9,73.9,94,30.04,10.0,East,8.1,-,N/A,,Scattered Clouds,100,2013-06-02 03:53:00